Back to catalog

XINGWANG JISHU SW 10-04

AliveScienceVLEO
NORAD 69323·PAYLOAD·🇨🇳 China
This satellite name has not been confirmed by official sources yet.

Launched May 30, 2026 from Xichang Satellite Launch Center

Loading…

Next Passes (next 24 hours)

TLE

FreshSource: Space-Track

Epoch: Sep 14, 2026, 13:10 UTC

1 69323U 26120D   26257.54923324  .00003601  00000-0  18284-3 0  9994
2 69323  55.0086 350.4815 0011166 183.0460 177.0493 15.19374428 16374

Track XINGWANG JISHU SW 10-04 in real time with AllMySat

Download on the App Store